Tracking 29069 objects as of 18-Jul-2024
HD Live streaming from Space Station
objects crossing your sky now

STARLINK-5879

Track STARLINK-5879 now!
10-day predictions
STARLINK-5879 is classified as:


NORAD ID: 57153
Int'l Code: 2023-090BE
Perigee: 565.3 km
Apogee: 567.0 km
Inclination: 43.0 °
Period: 95.8 minutes
Semi major axis: 6937 km
RCS: Unknown
Launch date: June 23, 2023
Source: United States (US)
Launch site: AIR FORCE EASTERN TEST RANGE (AFETR)
Your satellite tracking list
Your tracking list is empty




NASA's NSSDC Master Catalog

Two Line Element Set (TLE):
1 57153U 23090BE  24200.21752099 -.00005740  00000-0 -40990-3 0  9991
2 57153  43.0023 266.2815 0001255 284.7202  75.3501 15.02561899 59396
Source of the keplerian elements: AFSPC